Time [hr],Date,AE,AE1ch,AE2ch,Temperature,Humidity,Vaper Deficit,Illuminance,CO2,Pressure,SoilTemp,SoilWater,SolutionEC,Dielectricity,PoreEC,SoilEC,DC1ch,DC2ch,MASUA0010016,MASUA0010014,MASUA0010015
0,2022/12/01 00:00,,,,13.37,61.35,11.62,0,621,0,20.15,28.19,1.8457,15.40,2.8414,0.4001,,,
1,2022/12/01 01:00,,,,13.22,62.20,11.51,0,625,0,20.27,28.18,1.8529,15.40,2.8529,0.4019,,,
2,2022/12/01 02:00,,,,12.99,65.64,11.35,0,632,0,20.50,28.17,1.8541,15.39,2.8565,0.4024,,,
3,2022/12/01 03:00,,,,12.86,73.45,11.26,0,667,0,19.97,28.09,1.8616,15.33,2.8760,0.4023,,,
4,2022/12/01 04:00,,,,12.94,79.72,11.32,0,708,0,20.09,27.97,1.8512,15.25,2.8727,0.3992,,,
5,2022/12/01 05:00,,,,13.08,82.46,11.41,0,740,0,20.09,28.02,1.8571,15.29,2.8762,0.4009,,,
6,2022/12/01 06:00,,,,13.94,83.83,12.04,98,779,0,19.61,28.02,1.8686,15.29,2.8943,0.4025,,,
7,2022/12/01 07:00,,,,14.81,84.19,12.69,797,816,0,19.65,27.96,1.8668,15.25,2.8979,0.4016,,,
8,2022/12/01 08:00,,,,18.74,75.66,16.07,1360,867,0,19.82,27.98,1.8681,15.26,2.8973,0.4025,,,
9,2022/12/01 09:00,,,,20.09,73.76,17.39,3295,1035,0,18.95,27.98,1.8732,15.26,2.9058,0.4019,,,
10,2022/12/01 10:00,2,1,1,19.62,76.56,16.93,2832,1122,0,19.35,28.05,1.8729,15.31,2.8975,0.4032,,,
11,2022/12/01 11:00,,,,19.42,78.83,16.73,2477,1088,0,19.29,28.06,1.8646,15.31,2.8841,0.4014,,,
12,2022/12/01 12:00,,,,19.09,77.14,16.41,3654,1057,0,19.96,28.01,1.8638,15.28,2.8881,0.4020,,,
13,2022/12/01 13:00,,,,19.23,77.94,16.54,2318,1021,0,19.77,28.00,1.8764,15.27,2.9086,0.4043,,,
14,2022/12/01 14:00,,,,18.97,80.60,16.29,1012,1030,0,19.84,27.99,1.8738,15.27,2.9054,0.4038,,,
15,2022/12/01 15:00,,,,18.34,81.42,15.70,408,1058,0,20.03,28.04,1.8568,15.30,2.8741,0.4009,,,
16,2022/12/01 16:00,,,,18.21,80.69,15.58,54,1089,0,20.05,28.10,1.8739,15.34,2.8935,0.4053,,,
17,2022/12/01 17:00,,,,18.05,79.85,15.43,0,1121,0,19.92,28.06,1.8719,15.32,2.8947,0.4042,,,
18,2022/12/01 18:00,,,,17.72,79.26,15.13,0,1143,0,19.64,28.03,1.8700,15.30,2.8952,0.4030,,,
19,2022/12/01 19:00,,,,14.53,82.73,12.48,0,942,0,19.89,28.07,1.8500,15.32,2.8604,0.3994,,,
20,2022/12/01 20:00,,,,13.71,83.66,11.87,0,824,0,19.82,28.09,1.8485,15.34,2.8554,0.3992,,,
21,2022/12/01 21:00,1,0,1,13.44,83.81,11.67,0,782,0,19.98,28.07,1.8771,15.32,2.9023,0.4055,,,
22,2022/12/01 22:00,,,,13.35,84.29,11.60,0,778,0,19.76,27.98,1.8735,15.27,2.9052,0.4036,,,
23,2022/12/01 23:00,,,,13.25,84.55,11.53,0,790,0,19.66,28.03,1.8766,15.30,2.9051,0.4045,,,
24,2022/12/02 00:00,,,,12.96,84.56,11.33,0,787,0,19.55,27.99,1.8884,15.27,2.9279,0.4064,,,
25,2022/12/02 01:00,1,1,0,12.79,84.72,11.21,0,786,0,19.22,28.02,1.8829,15.29,2.9163,0.4048,,,
26,2022/12/02 02:00,,,,12.75,84.89,11.18,0,788,0,19.35,27.95,1.8883,15.25,2.9316,0.4057,,,
27,2022/12/02 03:00,,,,12.41,84.61,10.95,0,773,0,18.67,27.99,1.8867,15.27,2.9251,0.4044,,,
28,2022/12/02 04:00,,,,12.05,84.60,10.71,0,759,0,19.03,27.98,1.8963,15.27,2.9409,0.4071,,,
29,2022/12/02 05:00,,,,11.79,84.73,10.53,1,763,0,18.94,27.96,1.9039,15.25,2.9553,0.4083,,,
30,2022/12/02 06:00,,,,12.60,82.49,11.08,216,783,0,18.87,28.04,1.8755,15.30,2.9027,0.4028,,,
31,2022/12/02 07:00,,,,14.04,79.97,12.11,2342,793,0,18.88,27.98,1.8893,15.26,2.9305,0.4053,,,
32,2022/12/02 08:00,,,,20.05,68.84,17.36,6208,714,0,18.49,27.94,1.8942,15.24,2.9416,0.4053,,,
33,2022/12/02 09:00,3,2,1,21.94,60.70,19.38,7620,622,0,18.73,27.98,1.8866,15.26,2.9260,0.4044,,,
34,2022/12/02 10:00,7,0,7,24.40,54.59,22.29,8742,596,0,19.06,27.96,1.8842,15.25,2.9246,0.4043,,,
35,2022/12/02 11:00,1,0,1,25.41,62.49,23.58,11147,599,0,19.16,27.97,1.8783,15.25,2.9147,0.4033,,,
36,2022/12/02 12:00,,,,27.27,60.14,26.17,9994,587,0,19.45,27.98,1.8687,15.26,2.8979,0.4019,,,
37,2022/12/02 13:00,2,1,1,27.88,61.09,27.06,8519,590,0,19.30,28.06,1.8820,15.31,2.9107,0.4052,,,
38,2022/12/02 14:00,5,0,5,24.49,72.14,22.40,4949,662,0,20.13,28.11,1.8607,15.35,2.8723,0.4026,,,
39,2022/12/02 15:00,,,,19.74,81.78,17.05,2304,798,0,20.13,28.10,1.8632,15.34,2.8778,0.4030,,,
40,2022/12/02 16:00,,,,18.94,76.91,16.26,286,824,0,20.15,28.16,1.8570,15.38,2.8615,0.4023,,,
41,2022/12/02 17:00,,,,18.15,78.02,15.52,1,880,0,20.47,28.15,1.8574,15.37,2.8635,0.4029,,,
42,2022/12/02 18:00,,,,17.04,77.03,14.53,0,924,0,20.56,28.14,1.8708,15.37,2.8852,0.4059,,,
43,2022/12/02 19:00,,,,12.50,79.89,11.01,0,847,0,20.09,28.09,1.8701,15.34,2.8890,0.4044,,,
44,2022/12/02 20:00,,,,11.36,81.48,10.26,0,834,0,20.08,28.08,1.8683,15.33,2.8877,0.4039,,,
45,2022/12/02 21:00,,,,11.57,82.84,10.39,0,856,0,19.78,28.16,1.8689,15.38,2.8802,0.4042,,,
46,2022/12/02 22:00,,,,11.70,83.38,10.48,0,841,0,19.49,28.05,1.8699,15.31,2.8924,0.4029,,,
47,2022/12/02 23:00,,,,11.30,83.23,10.22,0,827,0,19.45,28.02,1.8785,15.29,2.9091,0.4044,,,
48,2022/12/03 00:00,1,1,0,11.49,80.32,10.34,0,822,0,19.52,28.00,1.8793,15.28,2.9121,0.4045,,,
49,2022/12/03 01:00,,,,11.54,80.97,10.37,0,824,0,19.13,27.96,1.8716,15.25,2.9051,0.4017,,,
50,2022/12/03 02:00,,,,11.10,83.64,10.09,0,848,0,18.98,27.96,1.8700,15.25,2.9026,0.4011,,,
51,2022/12/03 03:00,,,,11.16,84.33,10.13,0,870,0,19.07,27.97,1.8818,15.26,2.9197,0.4039,,,
52,2022/12/03 04:00,,,,11.50,83.06,10.35,0,873,0,19.05,27.94,1.8824,15.24,2.9236,0.4038,,,
53,2022/12/03 05:00,,,,11.99,82.35,10.66,0,867,0,18.74,27.95,1.8840,15.24,2.9254,0.4036,,,
54,2022/12/03 06:00,,,,12.98,82.79,11.34,78,889,0,18.50,27.92,1.8777,15.22,2.9190,0.4015,,,
55,2022/12/03 07:00,,,,14.67,82.13,12.58,1020,910,0,18.75,27.92,1.8912,15.22,2.9399,0.4049,,,
56,2022/12/03 08:00,,,,19.31,77.42,16.62,2224,925,0,18.19,27.91,1.8964,15.22,2.9488,0.4049,,,
57,2022/12/03 09:00,,,,19.53,80.24,16.84,3597,985,0,18.42,27.98,1.8906,15.26,2.9322,0.4047,,,
58,2022/12/03 10:00,,,,20.54,80.35,17.87,5580,1115,0,18.70,27.93,1.8869,15.23,2.9313,0.4040,,,
59,2022/12/03 11:00,,,,19.86,80.39,17.17,7043,1161,0,18.86,28.01,1.8932,15.28,2.9336,0.4063,,,
60,2022/12/03 12:00,,,,26.13,69.61,24.56,8012,917,0,19.02,28.00,1.8807,15.28,2.9149,0.4039,,,
61,2022/12/03 13:00,5,1,4,28.59,64.82,28.13,7085,636,0,19.35,28.07,1.8891,15.32,2.9210,0.4069,,,
62,2022/12/03 14:00,2,1,1,26.68,70.67,25.32,5711,669,0,19.51,28.02,1.8769,15.29,2.9067,0.4041,,,
63,2022/12/03 15:00,1,1,0,22.95,74.65,20.53,2651,731,0,19.90,28.11,1.8687,15.35,2.8845,0.4039,,,
64,2022/12/03 16:00,1,0,1,19.39,75.30,16.70,346,763,0,19.96,28.09,1.8748,15.34,2.8962,0.4052,,,
65,2022/12/03 17:00,,,,18.01,77.72,15.39,1,834,0,20.17,28.10,1.8689,15.34,2.8860,0.4044,,,
66,2022/12/03 18:00,,,,17.34,76.16,14.79,0,883,0,20.05,28.10,1.8753,15.34,2.8960,0.4055,,,
67,2022/12/03 19:00,,,,13.08,79.73,11.42,0,885,0,20.12,28.12,1.8731,15.35,2.8908,0.4053,,,
68,2022/12/03 20:00,,,,11.40,80.22,10.28,0,891,0,19.64,28.06,1.8759,15.31,2.9017,0.4045,,,
69,2022/12/03 21:00,,,,11.52,80.20,10.36,0,912,0,19.75,28.03,1.8709,15.29,2.8968,0.4033,,,
70,2022/12/03 22:00,,,,11.52,80.14,10.35,0,930,0,19.22,27.99,1.8725,15.27,2.9028,0.4024,,,
71,2022/12/03 23:00,,,,11.33,80.19,10.23,0,938,0,19.53,28.05,1.8729,15.31,2.8974,0.4036,,,
72,2022/12/04 00:00,,,,11.73,79.25,10.50,0,931,0,19.24,28.09,1.8744,15.34,2.8955,0.4038,,,
73,2022/12/04 01:00,,,,11.40,79.95,10.28,0,929,0,19.33,27.99,1.8829,15.27,2.9193,0.4048,,,
74,2022/12/04 02:00,,,,11.40,78.62,10.28,0,929,0,19.07,27.94,1.8835,15.24,2.9253,0.4040,,,
75,2022/12/04 03:00,,,,11.42,78.33,10.29,0,936,0,19.06,27.97,1.8904,15.26,2.9326,0.4058,,,
76,2022/12/04 04:00,,,,11.44,78.63,10.31,0,942,0,18.70,27.99,1.8919,15.27,2.9329,0.4056,,,
77,2022/12/04 05:00,,,,11.61,78.69,10.42,0,941,0,18.49,27.93,1.8883,15.23,2.9335,0.4039,,,
78,2022/12/04 06:00,,,,12.59,78.18,11.07,102,958,0,18.49,27.90,1.9022,15.21,2.9590,0.4066,,,
79,2022/12/04 07:00,,,,14.22,77.84,12.24,1087,973,0,18.49,27.95,1.8961,15.24,2.9440,0.4058,,,
80,2022/12/04 08:00,,,,20.26,66.70,17.58,6090,880,0,18.24,27.88,1.8883,15.20,2.9390,0.4030,,,
81,2022/12/04 09:00,,,,23.94,63.19,21.71,7839,668,0,18.26,27.85,1.8938,15.18,2.9505,0.4040,,,
82,2022/12/04 10:00,3,2,1,25.28,62.49,23.42,6404,615,0,18.17,27.89,1.8827,15.21,2.9290,0.4018,,,
83,2022/12/04 11:00,7,2,5,26.85,60.85,25.56,5927,601,0,18.79,27.95,1.8730,15.25,2.9079,0.4014,,,
84,2022/12/04 12:00,1,1,0,26.35,63.45,24.86,9496,646,0,18.98,27.99,1.8834,15.27,2.9197,0.4043,,,
85,2022/12/04 13:00,1,0,1,26.16,74.58,24.60,9418,660,0,19.20,27.95,1.8691,15.24,2.9022,0.4013,,,
86,2022/12/04 14:00,,,,26.45,72.94,25.00,7172,669,0,19.53,27.96,1.8622,15.25,2.8906,0.4005,,,
87,2022/12/04 15:00,1,1,0,24.34,80.81,22.22,3027,739,0,19.71,28.06,1.8735,15.31,2.8974,0.4041,,,
88,2022/12/04 16:00,,,,19.94,81.84,17.25,238,765,0,19.77,28.08,1.8517,15.33,2.8619,0.3997,,,
89,2022/12/04 17:00,,,,19.17,81.25,16.49,1,829,0,20.17,28.10,1.8439,15.34,2.8475,0.3990,,,
90,2022/12/04 18:00,,,,18.33,80.29,15.69,0,882,0,20.32,28.10,1.8586,15.34,2.8704,0.4024,,,
91,2022/12/04 19:00,,,,14.84,82.00,12.71,0,813,0,19.73,28.10,1.8550,15.34,2.8650,0.4005,,,
92,2022/12/04 20:00,,,,13.86,82.91,11.97,0,769,0,19.92,28.15,1.8613,15.37,2.8695,0.4027,,,
93,2022/12/04 21:00,,,,13.37,83.09,11.62,0,756,0,19.80,28.10,1.8515,15.34,2.8589,0.3999,,,
94,2022/12/04 22:00,,,,12.87,83.70,11.26,0,761,0,19.78,28.03,1.8546,15.30,2.8711,0.3999,,,
95,2022/12/04 23:00,,,,12.06,83.74,10.71,0,769,0,19.88,27.97,1.8710,15.26,2.9027,0.4031,,,
96,2022/12/05 00:00,,,,11.40,82.60,10.28,0,785,0,19.74,28.02,1.8565,15.29,2.8758,0.4001,,,
97,2022/12/05 01:00,,,,11.72,83.28,10.49,0,802,0,19.46,28.00,1.8756,15.28,2.9069,0.4036,,,
98,2022/12/05 02:00,,,,11.47,82.39,10.32,0,821,0,19.18,27.96,1.8878,15.25,2.9301,0.4053,,,
99,2022/12/05 03:00,,,,11.72,82.46,10.49,0,811,0,19.26,27.97,1.8675,15.26,2.8972,0.4012,,,
100,2022/12/05 04:00,,,,11.49,84.27,10.34,0,805,0,19.12,27.89,1.8787,15.21,2.9227,0.4027,,,
101,2022/12/05 05:00,,,,11.56,84.80,10.38,0,786,0,18.69,27.86,1.8888,15.19,2.9422,0.4038,,,
102,2022/12/05 06:00,,,,12.72,85.03,11.16,22,811,0,18.90,27.94,1.8715,15.24,2.9067,0.4012,,,
103,2022/12/05 07:00,,,,14.16,84.34,12.20,457,844,0,18.47,27.82,1.8904,15.16,2.9486,0.4033,,,
104,2022/12/05 08:00,,,,18.20,79.48,15.57,1979,904,0,18.19,27.86,1.8901,15.19,2.9440,0.4031,,,
105,2022/12/05 09:00,,,,19.23,80.38,16.54,2750,1053,0,18.48,27.80,1.8996,15.15,2.9654,0.4051,,,
106,2022/12/05 10:00,,,,19.58,80.92,16.88,2891,1237,0,18.44,27.93,1.8977,15.23,2.9485,0.4058,,,
107,2022/12/05 11:00,,,,19.46,81.45,16.77,2900,1367,0,18.83,27.89,1.8737,15.20,2.9155,0.4010,,,
108,2022/12/05 12:00,,,,19.71,80.95,17.01,3031,1513,0,18.86,27.92,1.8868,15.22,2.9328,0.4042,,,
109,2022/12/05 13:00,,,,18.86,81.81,16.18,1581,1605,0,18.82,28.00,1.8965,15.28,2.9391,0.4069,,,
110,2022/12/05 14:00,,,,17.76,81.35,15.17,738,1576,0,18.79,28.00,1.8737,15.28,2.9041,0.4019,,,
111,2022/12/05 15:00,,,,17.47,79.70,14.90,381,1554,0,18.83,27.99,1.8891,15.27,2.9284,0.4053,,,
112,2022/12/05 16:00,1,1,0,17.34,78.48,14.79,56,1541,0,19.31,28.01,1.8804,15.28,2.9137,0.4044,,,
113,2022/12/05 17:00,,,,17.84,78.97,15.23,0,1545,0,19.19,27.99,1.8652,15.27,2.8918,0.4008,,,
114,2022/12/05 18:00,,,,17.86,80.07,15.26,0,1551,0,19.18,27.95,1.8838,15.25,2.9246,0.4044,,,
115,2022/12/05 19:00,,,,14.30,83.38,12.31,0,1187,0,18.83,28.00,1.8809,15.27,2.9154,0.4035,,,
116,2022/12/05 20:00,,,,12.99,84.22,11.35,0,934,0,19.01,28.01,1.8860,15.28,2.9218,0.4051,,,
117,2022/12/05 21:00,,,,12.49,84.59,11.01,0,845,0,18.84,27.97,1.9017,15.26,2.9504,0.4077,,,
118,2022/12/05 22:00,,,,12.14,84.85,10.77,0,797,0,18.76,27.87,1.9043,15.19,2.9652,0.4073,,,
119,2022/12/05 23:00,,,,11.88,85.30,10.60,0,782,0,18.97,27.96,1.8908,15.25,2.9347,0.4056,,,
120,2022/12/06 00:00,,,,11.63,85.46,10.43,0,767,0,18.86,27.89,1.8996,15.20,2.9559,0.4066,,,
121,2022/12/06 01:00,,,,11.41,85.36,10.29,0,758,0,18.64,27.95,1.8976,15.24,2.9466,0.4063,,,
122,2022/12/06 02:00,,,,11.37,85.23,10.26,0,755,0,18.24,27.82,1.9090,15.16,2.9777,0.4069,,,
123,2022/12/06 03:00,,,,11.29,85.33,10.21,0,756,0,18.13,27.92,1.9116,15.22,2.9717,0.4081,,,
124,2022/12/06 04:00,,,,11.20,85.41,10.15,0,757,0,18.25,27.80,1.9127,15.15,2.9855,0.4075,,,
125,2022/12/06 05:00,1,1,0,11.64,85.16,10.43,0,765,0,17.96,27.85,1.8974,15.18,2.9567,0.4041,,,
126,2022/12/06 06:00,,,,12.87,84.56,11.27,48,793,0,18.06,27.85,1.9076,15.18,2.9728,0.4065,,,
127,2022/12/06 07:00,,,,14.22,83.64,12.25,715,818,0,18.21,27.83,1.9038,15.17,2.9681,0.4058,,,
128,2022/12/06 08:00,1,1,0,17.74,80.14,15.14,1389,822,0,18.07,27.90,1.9046,15.21,2.9622,0.4063,,,
129,2022/12/06 09:00,,,,17.78,79.92,15.18,2539,806,0,17.88,27.88,1.8910,15.20,2.9435,0.4029,,,
130,2022/12/06 10:00,,,,18.53,80.31,15.87,4462,770,0,18.22,27.86,1.8975,15.18,2.9559,0.4047,,,
131,2022/12/06 11:00,1,0,1,19.29,77.71,16.60,7043,773,0,18.31,27.91,1.9008,15.22,2.9558,0.4060,,,
132,2022/12/06 12:00,,,,21.14,77.75,18.49,9170,800,0,18.36,27.89,1.8999,15.20,2.9564,0.4058,,,
133,2022/12/06 13:00,,,,24.76,77.28,22.74,9863,769,0,18.36,27.99,1.9122,15.27,2.9647,0.4093,,,
134,2022/12/06 14:00,,,,23.23,79.22,20.85,5072,768,0,18.81,28.03,1.8986,15.29,2.9397,0.4076,,,
135,2022/12/06 15:00,,,,19.80,80.96,17.10,1669,885,0,19.05,28.04,1.8863,15.31,2.9188,0.4055,,,
136,2022/12/06 16:00,,,,18.40,82.79,15.75,121,935,0,18.80,28.00,1.8982,15.28,2.9415,0.4073,,,
137,2022/12/06 17:00,,,,18.29,82.30,15.65,1,981,0,19.43,28.08,1.9024,15.32,2.9406,0.4100,,,
138,2022/12/06 18:00,,,,17.84,81.67,15.23,0,1011,0,19.11,28.15,1.9072,15.37,2.9402,0.4111,,,
139,2022/12/06 19:00,,,,13.08,82.77,11.42,0,969,0,19.11,28.06,1.9048,15.31,2.9461,0.4098,,,
140,2022/12/06 20:00,,,,11.38,82.43,10.27,0,956,0,18.91,28.12,1.8852,15.35,2.9092,0.4057,,,
141,2022/12/06 21:00,,,,11.43,81.82,10.30,0,955,0,19.14,28.06,1.9085,15.32,2.9514,0.4106,,,
142,2022/12/06 22:00,,,,11.57,81.04,10.39,0,950,0,18.68,28.03,1.9010,15.30,2.9432,0.4079,,,
143,2022/12/06 23:00,,,,11.46,80.67,10.32,1,937,0,18.63,27.95,1.9279,15.24,2.9930,0.4128,,,
144,2022/12/07 00:00,,,,11.39,80.40,10.28,0,930,0,18.60,27.95,1.9136,15.24,2.9710,0.4097,,,
145,2022/12/07 01:00,,,,11.44,80.36,10.30,0,908,0,18.35,28.04,1.9177,15.30,2.9684,0.4109,,,
146,2022/12/07 02:00,,,,11.32,80.09,10.23,0,885,0,18.42,27.97,1.9201,15.26,2.9792,0.4109,,,
147,2022/12/07 03:00,,,,11.28,79.86,10.20,0,873,0,18.19,27.99,1.9120,15.27,2.9640,0.4089,,,
148,2022/12/07 04:00,,,,11.15,79.63,10.12,0,866,0,18.00,27.94,1.9131,15.24,2.9710,0.4084,,,
149,2022/12/07 05:00,,,,11.11,79.24,10.09,0,874,0,17.78,27.89,1.9152,15.21,2.9800,0.4080,,,
150,2022/12/07 06:00,,,,12.19,78.27,10.80,105,902,0,18.05,27.96,1.9453,15.25,3.0195,0.4155,,,
151,2022/12/07 07:00,,,,13.89,78.22,12.00,1381,916,0,17.69,27.85,1.9232,15.18,2.9965,0.4091,,,
152,2022/12/07 08:00,1,0,1,21.50,67.45,18.88,6520,818,0,17.55,27.86,1.9205,15.18,2.9920,0.4084,,,
153,2022/12/07 09:00,6,3,3,23.20,61.77,20.82,8376,667,0,17.47,27.88,1.9228,15.20,2.9927,0.4089,,,
154,2022/12/07 10:00,7,2,5,24.56,61.61,22.49,5693,619,0,17.79,27.95,1.9135,15.24,2.9708,0.4082,,,
155,2022/12/07 11:00,8,1,7,26.40,63.09,24.93,4700,592,0,18.00,27.94,1.9138,15.23,2.9729,0.4085,,,
156,2022/12/07 12:00,3,1,2,27.75,59.75,26.87,6067,586,0,18.28,27.95,1.8903,15.25,2.9345,0.4041,,,
157,2022/12/07 13:00,6,1,5,29.44,61.26,29.47,6181,591,0,18.71,28.00,1.8963,15.28,2.9388,0.4067,,,
158,2022/12/07 14:00,,,,28.26,71.91,27.63,5300,643,0,19.03,27.98,1.8887,15.26,2.9292,0.4054,,,
159,2022/12/07 15:00,,,,25.89,71.40,24.23,3511,675,0,19.21,28.12,1.8928,15.36,2.9207,0.4080,,,
160,2022/12/07 16:00,,,,19.70,78.58,17.00,222,706,0,19.54,28.11,1.8830,15.35,2.9066,0.4064,,,
161,2022/12/07 17:00,,,,18.57,79.47,15.92,0,772,0,19.80,28.10,1.8761,15.34,2.8969,0.4053,,,
162,2022/12/07 18:00,,,,18.01,78.23,15.39,0,818,0,19.82,28.09,1.8902,15.33,2.9204,0.4083,,,
163,2022/12/07 19:00,1,0,1,13.90,81.11,12.01,0,838,0,19.65,28.19,1.8956,15.40,2.9186,0.4099,,,
164,2022/12/07 20:00,,,,11.82,81.38,10.56,0,836,0,19.56,28.14,1.8801,15.37,2.8993,0.4060,,,
165,2022/12/07 21:00,,,,11.43,81.13,10.30,0,848,0,18.82,28.09,1.8878,15.33,2.9167,0.4058,,,
166,2022/12/07 22:00,,,,11.46,80.63,10.32,0,856,0,18.78,28.09,1.8996,15.33,2.9348,0.4082,,,
167,2022/12/07 23:00,,,,11.45,79.96,10.31,2,864,0,19.19,28.00,1.9129,15.28,2.9643,0.4111,,,
168,2022/12/08 00:00,,,,11.48,79.51,10.33,4,869,0,19.14,28.03,1.8954,15.29,2.9345,0.4075,,,
169,2022/12/08 01:00,,,,11.36,79.10,10.25,2,881,0,18.84,28.01,1.9020,15.28,2.9472,0.4081,,,
170,2022/12/08 02:00,,,,11.30,79.12,10.22,0,890,0,18.59,27.97,1.8861,15.26,2.9259,0.4040,,,
171,2022/12/08 03:00,,,,11.29,79.28,10.21,0,898,0,18.44,27.96,1.9126,15.25,2.9686,0.4092,,,
172,2022/12/08 04:00,,,,11.20,79.25,10.15,0,899,0,18.40,27.93,1.9163,15.23,2.9770,0.4097,,,
173,2022/12/08 05:00,,,,11.56,79.51,10.38,0,891,0,18.38,27.95,1.9013,15.24,2.9521,0.4066,,,
174,2022/12/08 06:00,,,,12.66,78.71,11.12,109,908,0,18.07,27.91,1.9059,15.22,2.9637,0.4067,,,
175,2022/12/08 07:00,,,,14.26,78.84,12.28,1348,914,0,17.77,27.87,1.9215,15.19,2.9924,0.4091,,,
176,2022/12/08 08:00,,,,21.91,65.74,19.34,6830,784,0,17.82,27.82,1.9200,15.16,2.9948,0.4085,,,
177,2022/12/08 09:00,,,,24.81,63.10,22.81,8340,657,0,17.56,27.87,1.9210,15.20,2.9907,0.4086,,,
178,2022/12/08 10:00,4,3,1,25.70,62.11,23.98,5942,612,0,17.82,27.85,1.9221,15.18,2.9953,0.4091,,,
179,2022/12/08 11:00,3,0,3,27.33,65.19,26.24,5092,603,0,18.20,27.91,1.9311,15.22,3.0030,0.4123,,,
180,2022/12/08 12:00,1,0,1,28.10,61.41,27.38,6400,597,0,18.27,27.89,1.9067,15.20,2.9672,0.4070,,,
181,2022/12/08 13:00,1,0,1,29.61,61.21,29.73,6503,587,0,18.72,27.91,1.8833,15.22,2.9283,0.4031,,,
182,2022/12/08 14:00,,,,28.48,63.05,27.97,6350,612,0,19.25,28.00,1.8729,15.27,2.9032,0.4026,,,
183,2022/12/08 15:00,,,,25.86,70.21,24.20,3729,637,0,19.53,27.99,1.8702,15.27,2.8991,0.4025,,,
184,2022/12/08 16:00,,,,20.09,76.25,17.40,321,674,0,19.37,27.94,1.8738,15.24,2.9099,0.4025,,,
185,2022/12/08 17:00,,,,18.51,78.44,15.86,1,749,0,19.73,28.06,1.8627,15.31,2.8809,0.4018,,,
186,2022/12/08 18:00,,,,17.81,77.03,15.21,0,800,0,19.86,28.00,1.8814,15.27,2.9162,0.4055,,,
187,2022/12/08 19:00,,,,13.39,79.38,11.64,0,775,0,19.45,27.96,1.8859,15.25,2.9268,0.4054,,,
188,2022/12/08 20:00,,,,11.21,80.32,10.16,0,779,0,19.85,28.02,1.8708,15.29,2.8975,0.4034,,,
189,2022/12/08 21:00,,,,11.24,79.85,10.18,0,807,0,19.41,27.98,1.8715,15.26,2.9027,0.4024,,,
190,2022/12/08 22:00,,,,11.54,78.93,10.37,0,830,0,19.61,27.97,1.8936,15.26,2.9377,0.4075,,,
191,2022/12/08 23:00,,,,11.39,78.58,10.27,0,849,0,19.30,27.97,1.8875,15.26,2.9285,0.4056,,,
192,2022/12/09 00:00,,,,11.27,78.38,10.19,3,867,0,18.80,27.91,1.8874,15.22,2.9347,0.4041,,,
193,2022/12/09 01:00,,,,11.20,78.32,10.15,3,881,0,18.64,27.93,1.8741,15.23,2.9117,0.4011,,,
194,2022/12/09 02:00,,,,11.22,78.37,10.17,1,896,0,18.58,27.86,1.8768,15.19,2.9234,0.4010,,,
195,2022/12/09 03:00,,,,11.19,78.35,10.14,0,903,0,18.51,27.82,1.8901,15.16,2.9488,0.4033,,,
196,2022/12/09 04:00,,,,11.22,78.45,10.16,0,912,0,18.29,27.75,1.8982,15.11,2.9688,0.4040,,,
197,2022/12/09 05:00,,,,11.48,78.41,10.33,0,921,0,17.97,27.76,1.8915,15.12,2.9570,0.4021,,,
198,2022/12/09 06:00,,,,12.49,77.58,11.00,98,945,0,18.05,27.78,1.8964,15.13,2.9624,0.4035,,,
199,2022/12/09 07:00,,,,13.96,77.90,12.05,1148,968,0,17.95,27.79,1.8933,15.14,2.9567,0.4027,,,
200,2022/12/09 08:00,,,,19.41,70.52,16.72,4730,914,0,18.05,27.81,1.9095,15.15,2.9803,0.4065,,,
201,2022/12/09 09:00,,,,23.00,68.82,20.58,8652,761,0,17.79,27.76,1.9012,15.12,2.9717,0.4039,,,
202,2022/12/09 10:00,2,1,1,25.32,67.98,23.47,7792,670,0,18.11,27.81,1.9062,15.15,2.9751,0.4059,,,
203,2022/12/09 11:00,,,,26.82,68.64,25.51,7648,601,0,18.24,27.77,1.9002,15.13,2.9698,0.4045,,,
204,2022/12/09 12:00,,,,28.04,64.46,27.29,6844,595,0,18.54,27.79,1.8800,15.14,2.9358,0.4009,,,
205,2022/12/09 13:00,1,0,1,29.07,63.82,28.88,6762,581,0,18.87,27.76,1.8839,15.12,2.9452,0.4021,,,
206,2022/12/09 14:00,,,,27.63,67.48,26.68,5974,626,0,19.40,27.88,1.8743,15.20,2.9176,0.4021,,,
207,2022/12/09 15:00,,,,24.37,72.03,22.25,2959,677,0,19.66,27.98,1.8531,15.26,2.8741,0.3989,,,
208,2022/12/09 16:00,6,1,5,19.45,76.78,16.76,275,721,0,19.73,27.97,1.8598,15.26,2.8858,0.4004,,,
209,2022/12/09 17:00,,,,18.69,79.49,16.03,1,784,0,19.94,27.92,1.8543,15.22,2.8820,0.3992,,,
210,2022/12/09 18:00,6,5,1,17.90,78.75,15.29,0,836,0,19.69,27.96,1.8813,15.25,2.9201,0.4049,,,
211,2022/12/09 19:00,,,,14.00,81.25,12.08,0,839,0,19.77,27.95,1.8703,15.24,2.9044,0.4025,,,
212,2022/12/09 20:00,,,,12.29,81.88,10.87,0,837,0,19.67,27.93,1.8637,15.23,2.8958,0.4008,,,
213,2022/12/09 21:00,2,1,1,12.71,83.66,11.15,0,845,0,19.41,27.92,1.8559,15.23,2.8845,0.3986,,,
214,2022/12/09 22:00,,,,12.95,84.03,11.32,0,814,0,19.15,27.89,1.8700,15.21,2.9096,0.4008,,,
215,2022/12/09 23:00,,,,12.07,83.66,10.72,0,779,0,19.23,27.92,1.8837,15.23,2.9278,0.4042,,,
216,2022/12/10 00:00,1,1,0,11.39,83.64,10.27,0,764,0,18.97,27.81,1.8985,15.15,2.9625,0.4059,,,
217,2022/12/10 01:00,,,,11.36,82.91,10.25,0,770,0,18.72,27.80,1.8724,15.14,2.9232,0.3997,,,
218,2022/12/10 02:00,2,1,1,11.43,82.32,10.30,0,774,0,18.70,27.80,1.8847,15.15,2.9422,0.4023,,,
219,2022/12/10 03:00,1,1,0,11.40,81.65,10.28,0,784,0,18.74,27.83,1.8832,15.17,2.9365,0.4024,,,
220,2022/12/10 04:00,,,,11.41,81.03,10.28,0,795,0,18.42,27.80,1.8907,15.15,2.9516,0.4031,,,
221,2022/12/10 05:00,1,1,0,11.37,80.41,10.26,0,809,0,18.10,27.69,1.8996,15.08,2.9765,0.4035,,,
222,2022/12/10 06:00,,,,12.35,79.27,10.91,72,845,0,18.08,27.76,1.8875,15.12,2.9505,0.4015,,,
223,2022/12/10 07:00,1,1,0,13.89,78.78,12.00,1033,876,0,18.07,27.78,1.8933,15.13,2.9576,0.4029,,,
224,2022/12/10 08:00,,,,20.60,70.61,17.93,5342,798,0,17.89,27.78,1.8998,15.14,2.9676,0.4039,,,
225,2022/12/10 09:00,2,2,0,25.04,64.73,23.11,8354,643,0,18.29,27.73,1.8936,15.10,2.9632,0.4029,,,
226,2022/12/10 10:00,,,,26.42,63.52,24.95,6284,585,0,18.32,27.72,1.8983,15.09,2.9722,0.4038,,,
227,2022/12/10 11:00,,,,28.48,68.09,27.95,5055,590,0,18.54,27.75,1.8939,15.12,2.9614,0.4036,,,
228,2022/12/10 12:00,,,,27.98,61.18,27.20,6265,590,0,18.32,27.78,1.8828,15.13,2.9411,0.4011,,,
229,2022/12/10 13:00,,,,28.50,59.85,27.99,6505,592,0,18.92,27.77,1.8735,15.13,2.9273,0.4001,,,
230,2022/12/10 14:00,,,,28.84,63.41,28.51,6655,622,0,19.45,27.82,1.8704,15.16,2.9181,0.4008,,,
231,2022/12/10 15:00,,,,25.69,69.97,23.96,3261,638,0,19.60,27.86,1.8554,15.19,2.8898,0.3983,,,
232,2022/12/10 16:00,,,,20.01,75.23,17.31,330,674,0,19.67,27.90,1.8603,15.21,2.8938,0.3998,,,
233,2022/12/10 17:00,,,,18.68,78.45,16.02,1,748,0,20.02,27.90,1.8556,15.21,2.8867,0.3994,,,
234,2022/12/10 18:00,,,,18.07,79.32,15.44,0,805,0,20.14,27.91,1.8524,15.22,2.8799,0.3991,,,
235,2022/12/10 19:00,,,,14.39,81.43,12.37,0,827,0,19.95,27.97,1.8565,15.26,2.8805,0.4001,,,
236,2022/12/10 20:00,,,,12.70,82.37,11.15,0,832,0,19.87,27.84,1.8469,15.17,2.8788,0.3967,,,
237,2022/12/10 21:00,,,,12.95,83.99,11.32,0,837,0,19.38,27.85,1.8762,15.18,2.9233,0.4022,,,
238,2022/12/10 22:00,,,,12.81,84.27,11.22,0,842,0,19.47,27.81,1.8900,15.15,2.9492,0.4050,,,
239,2022/12/10 23:00,,,,12.67,84.75,11.13,0,835,0,19.33,27.81,1.8538,15.15,2.8929,0.3970,,,
240,2022/12/11 00:00,,,,12.02,84.30,10.68,0,833,0,19.40,27.80,1.8607,15.15,2.9042,0.3985,,,
241,2022/12/11 01:00,,,,11.32,83.03,10.23,0,847,0,19.14,27.80,1.8699,15.14,2.9193,0.3999,,,
242,2022/12/11 02:00,,,,11.30,82.64,10.22,0,860,0,18.67,27.76,1.8521,15.12,2.8957,0.3949,,,
243,2022/12/11 03:00,,,,11.24,82.15,10.17,0,874,0,18.64,27.77,1.8893,15.13,2.9527,0.4029,,,
244,2022/12/11 04:00,,,,11.48,81.92,10.33,0,884,0,18.05,27.74,1.8984,15.11,2.9696,0.4035,,,
245,2022/12/11 05:00,,,,11.49,81.60,10.34,0,891,0,18.67,27.72,1.8934,15.09,2.9646,0.4034,,,
246,2022/12/11 06:00,,,,12.67,80.81,11.13,70,918,0,18.46,27.70,1.8833,15.08,2.9509,0.4007,,,
247,2022/12/11 07:00,,,,14.18,80.74,12.22,1360,939,0,18.24,27.74,1.8941,15.11,2.9635,0.4029,,,
248,2022/12/11 08:00,,,,19.54,74.37,16.84,3392,886,0,17.90,27.70,1.8907,15.08,2.9623,0.4012,,,
249,2022/12/11 09:00,,,,22.90,70.56,20.47,7167,804,0,18.08,27.78,1.8944,15.13,2.9595,0.4031,,,
250,2022/12/11 10:00,1,0,1,26.11,65.87,24.52,6909,624,0,18.48,27.70,1.8926,15.08,2.9651,0.4027,,,
251,2022/12/11 11:00,1,0,1,26.36,68.77,24.87,6291,585,0,18.38,27.76,1.8822,15.12,2.9426,0.4008,,,